Terminal Aerodrome Forecast
Issued by NWS

Home | Current Version | Previous Version | Text Only | Print | Product List | Glossary On
Versions: 1 2 3 4 5 6 7 8 9 10 11
921
FTUS45 KABQ 082336
TAFAEG
TAF
KAEG 082336Z 0900/0924 34010KT P6SM FEW250
     FM090200 31006KT P6SM SKC=

USA.gov is the U.S. government's official web portal to all federal, state and local government web resources and services.